Preview of NWS' New Version of Forecast
This preview is not operational and should not be used for support decisions.

Regional Weather Roundup (RWR)

Issued by National Weather Service (NWS)

                            
000
ASUS42 KTBW 172216
RWRFL 
FLORIDA REGIONAL WEATHER ROUNDUP
NATIONAL WEATHER SERVICE TAMPA BAY RUSKIN FL
600 PM EDT WED APR 17 2019

NOTE: "FAIR" INDICATES FEW OR NO CLOUDS BELOW 12,000 FEET WITH NO
SIGNIFICANT WEATHER AND/OR OBSTRUCTIONS TO VISIBILITY.

FLZ001>010-012>015-112-114-115-172300-
PANHANDLE FLORIDA
  
CITY           SKY/WX    TMP DP  RH WIND       PRES   REMARKS
PENSACOLA      FAIR      75  67  76 E10       30.02F                  
PENSACOLA NAS  PTSUNNY   74  68  81 E12       30.02F                  
MILTON NAS     PTSUNNY   78  62  57 S9        30.02F                  
CRESTVIEW        N/A    N/A N/A N/A MISG      30.04F                  
DUKE FIELD     FAIR      77  64  64 S12       30.03F                  
VALPARAISO     FAIR      74  67  77 S9        30.03F                  
MARY ESTHER    MOSUNNY   73  66  78 SE8       30.02F                  
PANAMA CITY    FAIR      77  65  66 S14       30.03S                  
TYNDALL AFB    FAIR      76  63  63 S14       30.03S                  
APALACHICOLA   FAIR      73  63  70 SE10      30.05F                  

STATION/POSITION SKY/WX   TEMP    WIND        PRES    WAVE   SWELL
                          AIR SEA DIR/SP/G            HT/PER HT/PER
                          (F)     (DEG/KT/KT) (MB)    (FT/S) (FT/S)
30.1N   87.6W              70      90/ 10/ 12   N/A     2/ 4
29.2N   88.2W                     100/ 12/ 14 1016.2
PANAMA CITY BEAC           72 72  170/ 11/ 12 1017.8R
TOWER C          NOT AVBL

$$
FLZ011-016>038-118-127-128-134-139-239-172300-
NORTH FLORIDA
  
CITY           SKY/WX    TMP DP  RH WIND       PRES   REMARKS
MARIANNA       FAIR      82  58  43 S6        30.01S                  
TALLAHASSEE    CLOUDY    80  58  46 S6        30.03F                  
PERRY          FAIR      77  62  58 SW9       30.05F                  
LIVE OAK       SUNNY     82  55  39 CALM      30.02F                  
CROSS CITY     FAIR      78  62  56 W8        30.03F                  
LAKE CITY      PTSUNNY   81  59  47 SE3       30.04F                  
GAINESVILLE    FAIR      84  59  42 SE7       30.07S                  
PALATKA        FAIR      77  63  61 E12       30.07R                  
MAYPORT NAS    PTSUNNY   75  63  66 E9        30.08F                  
JACKSONVILLE   PTSUNNY   76  60  57 SE13      30.06F                  
JAX NAS        PTSUNNY   80  61  52 SE13      30.07F                  
JAX CECIL      MOSUNNY   82  61  47 S12       30.06S                  
FERNANDINA BEA FAIR      73  64  72 E8        30.08F                  
ST AUGUSTINE   FAIR      75  65  70 E10       30.09S                  
PALM COAST     SUNNY     79  61  53 E9        30.07S                  

STATION/POSITION SKY/WX   TEMP    WIND        PRES    WAVE   SWELL
                          AIR SEA DIR/SP/G            HT/PER HT/PER
                          (F)     (DEG/KT/KT) (MB)    (FT/S) (FT/S)
SHELL POINT      NOT AVBL
KEATON BEACH               72     260/  6/  7 1017.7F
CEDAR KEY                  75     300/  6/  7 1017.1F
FERNANDINA                 76 71   90/  5/  9 1019.4F
30.7N   81.3W                 69                N/A     2/ 7
MAYPORT                    74 69   90/  9/ 12 1018.8F
31.4N   80.9W              70 70  110/  6/  8 1019.0F   2/10   2/10
ST AUGUSTINE               73 72  100/  8/  8 1018.7F

$$
FLZ040-043>046-052-053-057-058-063-144-172300-
INTERIOR CENTRAL FLORIDA
  
CITY           SKY/WX    TMP DP  RH WIND       PRES   REMARKS
OCALA          FAIR      83  60  45 E8        30.04F                  
LEESBURG       CLOUDY    79  60  52 SE10      30.05S                  
SANFORD        FAIR      81  61  50 E15       30.05F                  
ORLANDO EXEC   FAIR      80  56  43 E13       30.05S                  
ORLANDO INTL   FAIR      80  56  43 SE13      30.05S                  
KISSIMMEE      FAIR      80  59  48 E13       30.06S                  
WINTER HAVEN   FAIR      83  58  42 E13       30.05S                  
LAKELAND       PTSUNNY   82  57  42 E12       30.03F                  
BARTOW         FAIR      82  57  42 NE9       30.02F                  
SEBRING        FAIR      82  59  46 E12       30.03S                  
OKEECHOBEE     PTSUNNY   79  59  50 E8        30.03S                  

$$
FLZ041-047-054-059-064-141-147-172300-
EAST CENTRAL FLORIDA
  
CITY           SKY/WX    TMP DP  RH WIND       PRES   REMARKS
ORMOND BEACH   MOSUNNY   77  61  57 SE8       30.07F                  
DAYTONA BEACH  PTSUNNY   78  64  61 E8        30.07S                  
DELAND         PTSUNNY   81  61  50 E16       30.05F                  
NEW SMYRNA BEA MOSUNNY   77  63  61 E7        30.08F                  
JFK SPACE CTR  PTSUNNY   78  63  60 SE8       30.06S                  
TITUSVILLE     MOSUNNY   82  59  44 E12       30.07S                  
CAPE CANAVERAL FAIR      78  58  51 SE12      30.05S                  
PATRICK AFB    FAIR      79  63  56 E14       30.06R                  
MELBOURNE      FAIR      79  62  56 E10       30.06S                  
VERO BEACH     FAIR      79  61  53 E15       30.05S                  
FT PIERCE      PTSUNNY   77  61  57 E10       30.04F                  
STUART         MOSUNNY   81  59  47 E12G18    30.05F                  

STATION/POSITION SKY/WX   TEMP    WIND        PRES    WAVE   SWELL
                          AIR SEA DIR/SP/G            HT/PER HT/PER
                          (F)     (DEG/KT/KT) (MB)    (FT/S) (FT/S)
28.5N   80.2W              76      90/ 10/ 14 1018.3S   3/ 8   2/ 8
28.9N   78.5W              74 77   90/ 12/ 16 1018.8
TRIDENT PIER               78 78   90/  5/ 11 1019.5R
28.4N   80.5W                 77                N/A     2/ 8
27.5N   80.2W                 76                N/A     3/ 4

$$
FLZ050-056-061-142-242-148-248-149-249-151-251-155-255-
160-260-172300-
WEST CENTRAL FLORIDA
  
CITY           SKY/WX    TMP DP  RH WIND       PRES   REMARKS
CRYSTAL RIVER  FAIR      86  59  39 E5        30.02F                  
INVERNESS      FAIR      82  61  47 E3        30.03F                  
BROOKSVILLE    PTSUNNY   83  59  44 E7        30.03F                  
CLEARWATER AIR FAIR      77  61  57 NW10      30.02S                  
ST PETE CLEARW FAIR      81  64  56 N10       30.01F                  
TAMPA INTL     PTSUNNY   84  57  39 SE6       30.02F                  
TAMPA EXEC     FAIR      84  59  42 SE8       30.02F                  
PLANT CITY     FAIR      84  57  39 E7        30.04F                  
MACDILL AFB    FAIR      82  57  42 SE7       30.01S                  
PETER O KNIGHT PTSUNNY   84  61  45 E6        30.02S                  
ST PETERSBURG  FAIR      82  64  54 NE6       29.99F                  
SARASOTA       FAIR      80  64  58 W13       30.00F                  
VENICE         PTSUNNY   81  64  57 NW13      30.02S                  

STATION/POSITION SKY/WX   TEMP    WIND        PRES    WAVE   SWELL
                          AIR SEA DIR/SP/G            HT/PER HT/PER
                          (F)     (DEG/KT/KT) (MB)    (FT/S) (FT/S)
27.3N   84.2W                 76                N/A     3/ 5
CLEARWATER BEACH           75 78  320/  9/ 10 1016.8F
MIDDLE TAMPA BAY           81     140/  4/  5 1016.3F
VENICE                     76 77  310/ 11/ 13 1016.3F

$$
FLZ066-069-070-075>078-162-262-165-265-172300-
SOUTHWEST FLORIDA AND KEYS
  
CITY           SKY/WX    TMP DP  RH WIND       PRES   REMARKS
PUNTA GORDA    FAIR      82  58  43 SE10      30.02S                  
FT MYERS       PTSUNNY   83  60  45 E9        29.99S                  
SOUTHWEST INTL FAIR      83  59  44 E8        29.99F                  
NAPLES         FAIR      80  67  64 W10       29.99F                  
MARCO ISLAND   FAIR      82  66  58 W7        30.00S                  
IMMOKALEE      CLOUDY    84  61  45 E12       29.98S                  
MARATHON       FAIR      83  62  49 E9G21     29.99F                  
KEY WEST NAS   FAIR      82  64  54 E14       29.99S                  
KEY WEST INTL  FAIR      80  65  59 E15G25    30.00S                  

STATION/POSITION SKY/WX   TEMP    WIND        PRES    WAVE   SWELL
                          AIR SEA DIR/SP/G            HT/PER HT/PER
                          (F)     (DEG/KT/KT) (MB)    (FT/S) (FT/S)
NAPLES                     81 81  220/  6/  7 1015.7F
DRY TORTUGAS               78     110/ 14/ 16 1015.4F
SAND KEY                   76                 1015.5F
SOMBRERO KEY               77                 1014.9F

$$
FLZ067-068-071>074-168-172>174-172300-
SOUTHEAST FLORIDA 
  
CITY           SKY/WX    TMP DP  RH WIND       PRES   REMARKS
W PALM BEACH   PTSUNNY   79  61  53 E14       30.03F                  
BOCA RATON     MOSUNNY   81  63  54 E12G17    30.02F                  
FT LAUDER-EXEC PTSUNNY   79  60  52 E14G21    30.01F                  
FT LAUDERDALE  PTSUNNY   78  61  55 E12       30.01F                  
POMPANO BEACH  FAIR      80  61  52 E9        30.02F                  
PEMBROKE PINES FAIR      79  61  53 E12G22    30.03F                  
OPA LOCKA      FAIR      79  61  53 E16       30.02F                  
MIAMI          FAIR      79  61  53 E14       30.02F                  
WEST KENDALL   FAIR      80  62  54 E13       30.01S                  
HOMESTEAD      PTSUNNY   80  64  57 E12       30.01S                  

STATION/POSITION SKY/WX   TEMP    WIND        PRES    WAVE   SWELL
                          AIR SEA DIR/SP/G            HT/PER HT/PER
                          (F)     (DEG/KT/KT) (MB)    (FT/S) (FT/S)
PORT EVERGLADES            77      70/  9/ 14 1016.7F
VIRGINIA KEY               77 83   50/ 10/ 14 1016.0F
LAKE WORTH                 76 79   70/ 11/ 13 1018.0F
SETTLEMENT POINT           76      70/ 16/ 18 1017.3F

$$